Weather History for KEHO - December, 2011

Change the Weather History Date:

Saturday, December 3, 2011

  Actual Average (KHKY) Record (KHKY)
Temperature  
Mean Temperature 43 °F -  
Max Temperature 53 °F 54 °F - (-1)
Min Temperature 33 °F 33 °F - (-1)
Degree Days  
Heating Degree Days 22    
Moisture  
Dew Point 31 °F    
Average Humidity 65    
Maximum Humidity 93    
Minimum Humidity 41    
Precipitation  
Precipitation 0.00 in - - ()
Sea Level Pressure  
Sea Level Pressure 30.53 in    
Wind  
Wind Speed 6 mph (NNE)    
Max Wind Speed 13 mph    
Max Gust Speed 17 mph    
Visibility 10 miles    
Events      
Averages and records for this station are not official NWS values.
T = Trace of Precipitation, MM = Missing Value Source: NWS Daily Summary

Daily Weather History Graph

Daily Weather History Graph

Search for Another Location

Airport or City:

Trip Planner

Search our weather history database for the weather conditions in past years. The results will help you decide how hot, cold, wet, or windy it might be!

Date:

Astronomy

Dec. 03, 2011 Rise Set
Actual Time 7:18 AM EST 5:13 PM EST
Civil Twilight 6:50 AM EST 5:41 PM EST
Nautical Twilight 6:18 AM EST 6:13 PM EST
Astronomical Twilight 5:48 AM EST 6:44 PM EST
Moon 1:07 PM EST (12/3) 12:57 AM EST (12/3)
Length of Visible Light 10h 51m
Length of Day
9h 55m
Waxing Gibbous, 62% of the Moon is Illuminated
Dec 3
Waxing Gibbous
Dec 10
Full
Dec 17
Last Quarter
Dec 24
New
Jan 1
First Quarter

Hourly Weather History & Observations

Time (EST) Temp. Windchill Dew Point Humidity Pressure Visibility Wind Dir Wind Speed Gust Speed Precip Events Conditions
12:15 AM 37.4 °F 33.8 °F 32.0 °F 81% 30.48 in 10.0 mi NNE 4.6 mph - N/A   Clear
12:35 AM 37.4 °F 33.8 °F 32.0 °F 81% 30.47 in 10.0 mi NNE 4.6 mph - N/A   Clear
12:55 AM 35.6 °F 32.8 °F 32.0 °F 87% 30.47 in 10.0 mi NE 3.5 mph - N/A   Clear
1:15 AM 33.8 °F 29.6 °F 32.0 °F 93% 30.47 in 10.0 mi NNE 4.6 mph - N/A   Clear
1:35 AM 33.8 °F 28.6 °F 32.0 °F 93% 30.48 in 10.0 mi NNE 5.8 mph - N/A   Clear
1:55 AM 33.8 °F 28.6 °F 32.0 °F 93% 30.48 in 10.0 mi NNE 5.8 mph - N/A   Clear
2:15 AM 33.8 °F 28.6 °F 32.0 °F 93% 30.49 in 10.0 mi NNE 5.8 mph - N/A   Clear
2:35 AM 35.6 °F 29.9 °F 32.0 °F 87% 30.49 in 10.0 mi NNE 6.9 mph - N/A   Clear
2:55 AM 33.8 °F 27.0 °F 32.0 °F 93% 30.49 in 10.0 mi North 8.1 mph - N/A   Clear
3:15 AM 35.6 °F 29.9 °F 30.2 °F 81% 30.49 in 10.0 mi NNE 6.9 mph - N/A   Clear
3:35 AM 33.8 °F 27.7 °F 30.2 °F 87% 30.50 in 10.0 mi NNE 6.9 mph - N/A   Clear
3:55 AM 33.8 °F 27.7 °F 30.2 °F 87% 30.49 in 10.0 mi NNE 6.9 mph - N/A   Clear
4:15 AM 33.8 °F 27.7 °F 30.2 °F 87% 30.49 in 10.0 mi NNE 6.9 mph - N/A   Clear
4:35 AM 33.8 °F 28.6 °F 30.2 °F 87% 30.49 in 10.0 mi NNE 5.8 mph - N/A   Clear
4:55 AM 35.6 °F 30.7 °F 28.4 °F 75% 30.49 in 10.0 mi NNE 5.8 mph - N/A   Clear
5:15 AM 33.8 °F 28.6 °F 28.4 °F 81% 30.50 in 10.0 mi NNE 5.8 mph - N/A   Clear
5:35 AM 35.6 °F 30.7 °F 28.4 °F 75% 30.51 in 10.0 mi North 5.8 mph - N/A   Clear
5:55 AM 35.6 °F 30.7 °F 28.4 °F 75% 30.52 in 10.0 mi NNE 5.8 mph - N/A   Clear
6:35 AM 37.4 °F 31.4 °F 28.4 °F 70% 30.53 in 10.0 mi NNE 8.1 mph - N/A   Clear
6:55 AM 37.4 °F 30.8 °F 28.4 °F 70% 30.54 in 10.0 mi NNE 9.2 mph - N/A   Clear
7:15 AM 35.6 °F 29.2 °F 28.4 °F 75% 30.54 in 10.0 mi NNE 8.1 mph - N/A   Clear
7:35 AM 37.4 °F 30.8 °F 28.4 °F 70% 30.55 in 10.0 mi NNE 9.2 mph - N/A   Clear
7:55 AM 35.6 °F 28.0 °F 28.4 °F 75% 30.57 in 10.0 mi NNE 10.4 mph - N/A   Clear
8:15 AM 37.4 °F 32.1 °F 28.4 °F 70% 30.58 in 10.0 mi NNE 6.9 mph - N/A   Clear
8:35 AM 39.2 °F 33.0 °F 28.4 °F 65% 30.57 in 10.0 mi NNE 9.2 mph - N/A   Clear
8:55 AM 41.0 °F 34.3 °F 30.2 °F 65% 30.58 in 10.0 mi NNE 11.5 mph - N/A   Clear
9:15 AM 41.0 °F 34.7 °F 30.2 °F 65% 30.59 in 10.0 mi NNE 10.4 mph - N/A   Clear
9:35 AM 42.8 °F 36.6 °F 30.2 °F 61% 30.59 in 10.0 mi NNE 11.5 mph 17.3 mph N/A   Clear
9:55 AM 44.6 °F 38.4 °F 30.2 °F 57% 30.60 in 10.0 mi NNE 12.7 mph 16.1 mph N/A   Clear
10:15 AM 44.6 °F 39.7 °F 30.2 °F 57% 30.60 in 10.0 mi NNE 9.2 mph - N/A   Clear
10:35 AM 46.4 °F 41.1 °F 30.2 °F 53% 30.60 in 10.0 mi ENE 11.5 mph - N/A   Clear
10:55 AM 46.4 °F 42.4 °F 30.2 °F 53% 30.60 in 10.0 mi NNE 8.1 mph - N/A   Clear
11:15 AM 46.4 °F 42.9 °F 30.2 °F 53% 30.60 in 10.0 mi NNE 6.9 mph - N/A   Clear
11:35 AM 48.2 °F - 30.2 °F 50% 30.59 in 10.0 mi NNE 5.8 mph - N/A   Clear
11:55 AM 50.0 °F - 32.0 °F 50% 30.58 in 10.0 mi NNE 6.9 mph - N/A   Clear
12:15 PM 50.0 °F - 32.0 °F 50% 30.58 in 10.0 mi NNE 4.6 mph - N/A   Clear
12:35 PM 51.8 °F - 32.0 °F 47% 30.57 in 10.0 mi NNE 5.8 mph - N/A   Clear
12:55 PM 51.8 °F - 32.0 °F 47% 30.55 in 10.0 mi NNE 5.8 mph - N/A   Clear
1:15 PM 51.8 °F - 32.0 °F 47% 30.54 in 10.0 mi NE 5.8 mph - N/A   Clear
1:35 PM 53.6 °F - 30.2 °F 41% 30.54 in 10.0 mi Calm Calm - N/A   Clear
1:55 PM 53.6 °F - 32.0 °F 44% 30.53 in 10.0 mi Calm Calm - N/A   Clear
2:15 PM 53.6 °F - 32.0 °F 44% 30.52 in 10.0 mi ENE 5.8 mph - N/A   Clear
2:55 PM 53.6 °F - 32.0 °F 44% 30.52 in 10.0 mi East 3.5 mph - N/A   Clear
3:35 PM 53.6 °F - 32.0 °F 44% 30.51 in 10.0 mi NE 5.8 mph - N/A   Clear
3:55 PM 53.6 °F - 32.0 °F 44% 30.52 in 10.0 mi NNE 5.8 mph - N/A   Clear
4:15 PM 53.6 °F - 32.0 °F 44% 30.52 in 10.0 mi NE 4.6 mph - N/A   Clear
4:35 PM 51.8 °F - 30.2 °F 44% 30.51 in 10.0 mi NE 5.8 mph - N/A   Clear
4:55 PM 51.8 °F - 32.0 °F 47% 30.52 in 10.0 mi North 3.5 mph - N/A   Clear
5:15 PM 50.0 °F - 32.0 °F 50% 30.52 in 10.0 mi North 3.5 mph - N/A   Clear
5:35 PM 50.0 °F - 32.0 °F 50% 30.52 in 10.0 mi NNE 4.6 mph - N/A   Clear
5:55 PM 50.0 °F - 32.0 °F 50% 30.52 in 10.0 mi NNE 3.5 mph - N/A   Clear
6:35 PM 46.4 °F 44.3 °F 32.0 °F 57% 30.53 in 10.0 mi NNE 4.6 mph - N/A   Clear
6:55 PM 46.4 °F 44.3 °F 32.0 °F 57% 30.53 in 10.0 mi NNE 4.6 mph - N/A   Clear
7:15 PM 44.6 °F 43.1 °F 32.0 °F 61% 30.53 in 10.0 mi NNE 3.5 mph - N/A   Clear
7:35 PM 44.6 °F 42.2 °F 32.0 °F 61% 30.53 in 10.0 mi NNE 4.6 mph - N/A   Clear
7:55 PM 44.6 °F 42.2 °F 32.0 °F 61% 30.53 in 10.0 mi NNE 4.6 mph - N/A   Clear
8:15 PM 42.8 °F 40.1 °F 32.0 °F 66% 30.53 in 10.0 mi North 4.6 mph - N/A   Clear
8:35 PM 42.8 °F 39.3 °F 32.0 °F 66% 30.54 in 10.0 mi NNE 5.8 mph - N/A   Clear
9:35 PM 41.0 °F 38.0 °F 32.0 °F 70% 30.53 in 10.0 mi NNE 4.6 mph - N/A   Clear
9:55 PM 41.0 °F 38.0 °F 32.0 °F 70% 30.53 in 10.0 mi NNE 4.6 mph - N/A   Clear
10:15 PM 39.2 °F 35.9 °F 32.0 °F 75% 30.54 in 10.0 mi North 4.6 mph - N/A   Clear
10:35 PM 41.0 °F 37.1 °F 32.0 °F 70% 30.53 in 10.0 mi NNE 5.8 mph - N/A   Clear
10:55 PM 37.4 °F 32.8 °F 32.0 °F 81% 30.53 in 10.0 mi NNE 5.8 mph - N/A   Clear
11:35 PM 37.4 °F 32.8 °F 32.0 °F 81% 30.53 in 10.0 mi NNE 5.8 mph - N/A   Clear
11:55 PM 39.2 °F 35.0 °F 32.0 °F 75% 30.53 in 10.0 mi North 5.8 mph - N/A   Clear